This demonstration page uses our WeatherBlox Daily Observations layout. Learn more.

Left ArrowRight Arrow

Hourly Observations for April 12, 2022

Temp ( °F °C ) Dew Point ( °F °C ) Humidity (%) Winds ( mph kmh ) Pressure ( in mb ) Visibility ( mi km ) Precip ( " mm )
12:40 am 00:40 Cloudy 56 13.3 54 12.2 93 93 ESE 9 15 29.83 1010 10 16 0.00 0.00
12:52 am 00:52 Cloudy 56 13.3 54 12.2 93 93 ESE 9 15 29.82 1010 10 16 0.00 0.00
1:52 am 01:52 Cloudy 57 13.9 56 13.3 96 96 SE 8 13 29.81 1009 10 16 0.00 0.00
1:59 am 01:59 Cloudy 57 13.9 56 13.3 96 96 SE 8 13 29.81 1010 9 14 0.00 0.00
2:52 am 02:52 Cloudy with Mist and Fog 57 13.9 57 13.9 100 100 SE 13 20 29.78 1009 3 4 0.00 0.00
3:09 am 03:09 Cloudy with Mist and Fog 57 13.9 57 13.9 100 100 SE 16 26 29.78 1009 2 2 0.00 0.00
3:39 am 03:39 Mostly Cloudy with Mist and Fog 57 13.9 57 13.9 100 100 SE 14 22 29.77 1008 1 1 0.00 0.00
3:47 am 03:47 Mostly Cloudy with Mist and Fog 57 14 57 14 100 100 SE 14 22 29.77 1008 1 2 0.00 0.00
3:52 am 03:52 Mostly Cloudy with Mist and Fog 57 13.9 57 13.9 100 100 SE 14 22 29.77 1008 1 2 0.00 0.00
4:42 am 04:42 Cloudy with Mist and Fog 58 14.4 58 14.4 100 100 SE 17 28 29.75 1007 2 3 0.00 0.00
4:52 am 04:52 Cloudy with Mist and Fog 58 14.4 58 14.4 100 100 SE 14 22 29.74 1007 2 3 0.00 0.00
5:09 am 05:09 Cloudy with Mist and Fog 59 15 59 15 100 100 SE 15 24 29.75 1007 3 5 0.00 0.00
5:52 am 05:52 Cloudy with Mist and Fog 59 15 59 15 100 100 SSE 15 24 29.74 1007 5 8 0.00 0.00
6:20 am 06:20 Cloudy with Mist and Fog 60 15.6 60 15.6 100 100 SSE 15 24 29.74 1007 3 4 0.00 0.00
6:31 am 06:31 Cloudy with Mist and Fog 60 15.6 60 15.6 100 100 SSE 15 24 29.74 1007 3 5 0.00 0.00
6:52 am 06:52 Cloudy with Mist and Fog 60 15.6 60 15.6 100 100 SSE 14 22 29.74 1007 4 6 0.00 0.00
7:52 am 07:52 Cloudy with Mist and Fog 62 16.7 61 16.1 96 96 SSE 17 28 29.74 1007 6 10 0.00 0.00
8:03 am 08:03 Cloudy 62 16.7 62 16.7 100 100 SSE 15 24 29.74 1007 7 11 0.00 0.00
8:52 am 08:52 Cloudy 64 17.8 63 17.2 96 96 SSE 17 28 29.74 1007 8 13 0.00 0.00
9:31 am 09:31 Mostly Cloudy 67 19.4 64 17.8 91 91 SSE 16 26 29.73 1007 9 14 0.00 0.00
9:42 am 09:42 Mostly Cloudy 68 20 64 17.8 87 87 SSE 16 26 29.71 1006 9 14 0.00 0.00
9:52 am 09:52 Mostly Cloudy 68 20 64 17.8 87 87 SSE 18 30 29.73 1007 10 16 0.00 0.00
10:52 am 10:52 Mostly Cloudy 72 22.2 64 17.8 76 76 S 21 33 29.71 1006 10 16 0.00 0.00
11:52 am 11:52 Mostly Cloudy 74 23.3 65 18.3 74 74 S 21 33 29.70 1006 10 16 0.00 0.00
12:52 pm 12:52 Partly Cloudy 77 25 64 17.8 64 64 S 24 39 29.66 1004 10 16 0.00 0.00
1:52 pm 13:52 Mostly Sunny 77 25 63 17.2 62 62 SSW 25 41 29.65 1004 10 16 0.00 0.00
2:52 pm 14:52 Mostly Sunny 79 26.1 63 17.2 58 58 S 23 37 29.63 1003 10 16 0.00 0.00
3:52 pm 15:52 Partly Cloudy 78 25.6 62 16.7 58 58 S 25 41 29.62 1003 10 16 0.00 0.00
4:52 pm 16:52 Mostly Cloudy 76 24.4 62 16.7 62 62 S 23 37 29.62 1003 10 16 0.00 0.00
5:52 pm 17:52 Sunny 74 23.3 61 16.1 64 64 S 24 39 29.60 1002 10 16 0.00 0.00
6:52 pm 18:52 Sunny 73 22.8 61 16.1 66 66 S 22 35 29.58 1002 10 16 0.00 0.00
7:52 pm 19:52 Clear 72 22.2 61 16.1 68 68 SSE 23 37 29.57 1002 10 16 0.00 0.00
8:52 pm 20:52 Clear 70 21.1 61 16.1 73 73 SSE 20 31 29.59 1002 10 16 0.00 0.00
9:52 pm 21:52 Clear 68 20 61 16.1 78 78 SSE 17 28 29.59 1002 10 16 0.00 0.00
10:52 pm 22:52 Mostly Clear 68 20 61 16.1 78 78 S 21 33 29.57 1002 10 16 0.00 0.00
11:52 pm 23:52 Clear 67 19.4 61 16.1 81 81 SSE 22 35 29.51 999 10 16 0.00 0.00

Powered by AerisWeather